Content
SEND FEEDBACK

Daily
Averages
Monthly
Summary
United States of America

EXPERIMENT, GEORGIA


Home > North America > United States > Georgia
Elevation: 913 feet     Latitude: 33 16N     Longitude: 084 17W

WEATHER
 
SELECT A DAY
Number of Records: 199,611;   Date Range: 1/31/96 - 8/28/14
 
SHARE

PRINT THIS DATA

[ ← Previous Day ]
WEATHER ALMANAC - JANUARY 31, 2013
[ Next Day → ]
[ °C ]   °F
Weather ElementAverageHighLow
Temperature40.3 °F50 °F (3:53 pm)33.1 °F (7:53 am)
Dewpoint25 °F34 °F (1:53 am)21 °F (2:53 pm)
Humidity56.6 %79 % (1:53 am)33 % (2:53 pm)
Barometer30.12 in30.22 in (10:53 pm)29.94 in (1:53 am)
Wind Speed9 mph19.6 mph (12:53 pm)
Wind Gust29.9 mph (2:53 am)
Weather ElementAverage
Visibility9.8 mi
Wind DirectionWSW (236.1 °)

Weather ElementTotal
Precipitation0.01 in
Heating Degree Days23.5 (Base 65)
Averaged from 23 records on January 31, 2013
WEATHER CONDITIONS BREAKOUT
WIND DIRECTION BREAKOUT
WEATHER BY HOUR - JANUARY 31, 2013
[ °C ]   °F
Local TimeTemperatureDewpointHumidityBarometerVisibilityWind DirectionWind SpeedGust SpeedPrecipitationEventsConditions
1:53 AM39.9 °F34.0 °F79 %29.94 in6.0 miWest (280°)12.7 mph28.8 mph0.01 inRainLight Rain
2:53 AM37.9 °F26.1 °F62 %29.97 in10.0 miWNW (290°)17.3 mph29.9 mph0.00 inClear
3:53 AM37.0 °F25.0 °F62 %30.00 in10.0 miWNW (300°)10.4 mphClear
4:53 AM36.0 °F25.0 °F64 %30.01 in10.0 miWNW (300°)9.2 mph19.6 mphClear
5:53 AM35.1 °F26.1 °F70 %30.05 in10.0 miWNW (290°)8.1 mphClear
6:53 AM35.1 °F25.0 °F67 %30.06 in10.0 miWNW (290°)8.1 mph17.3 mphClear
7:53 AM33.1 °F25.0 °F72 %30.08 in10.0 miWNW (290°)6.9 mphClear
8:53 AM36.0 °F25.0 °F64 %30.10 in10.0 miNW (310°)11.5 mph18.4 mphClear
9:53 AM37.9 °F25.0 °F60 %30.13 in10.0 miWest (280°)11.5 mph19.6 mphClear
10:53 AM41.0 °F24.1 °F51 %30.15 in10.0 miWNW (290°)10.4 mph21.9 mphClear
11:53 AM44.1 °F23.0 °F43 %30.16 in10.0 miWNW (290°)12.7 mph20.7 mphClear
12:53 PM46.9 °F23.0 °F39 %30.15 in10.0 miNW (310°)19.6 mph26.5 mphClear
1:53 PM48.0 °F21.9 °F36 %30.15 in10.0 miWNW (290°)12.7 mph21.9 mphClear
2:53 PM48.9 °F21.0 °F33 %30.15 in10.0 miWest (280°)13.8 mph20.7 mphClear
3:53 PM50.0 °F21.9 °F33 %30.14 in10.0 miNW (310°)12.7 mph21.9 mphClear
4:53 PM48.9 °F21.9 °F35 %30.14 in10.0 miNW (310°)11.5 mphClear
5:53 PM46.9 °F21.9 °F37 %30.15 in10.0 miWest (270°)4.6 mphClear
6:53 PM41.0 °F27.0 °F57 %30.17 in10.0 miCalmClear
7:53 PM35.1 °F28.9 °F78 %30.19 in10.0 miCalmClear
8:53 PM37.9 °F25.0 °F60 %30.19 in10.0 miSSW (200°)3.5 mphClear
9:53 PM33.1 °F27.0 °F78 %30.20 in10.0 miCalmClear
10:53 PM37.9 °F26.1 °F62 %30.22 in10.0 miWSW (250°)3.5 mphClear
11:53 PM39.0 °F26.1 °F60 %30.21 in10.0 miVariable5.8 mphClear
Hourly data recorded from KFFC, located miles away from Experiment, Georgia







STORIES FROM OUR PARTNERS